Regional Weather Roundup
Issued by NWS Charleston, SC

Current Version | Previous Version | Graphics & Text | Print | Product List | Glossary On
Versions: 1 2 3 4 5 6 7 8 9 10 11 12 13 14 15 16 17 18 19 20 21 22 23 24 25 26 27 28 29 30 31 32 33 34 35 36 37 38 39 40 41 42 43 44 45 46 47 48 49 50
000 ASUS42 KCHS 251428 RWRCHS REGIONAL WEATHER ROUNDUP NATIONAL WEATHER SERVICE CHARLESTON SC 1000 AM EDT SUN SEP 25 2016 NOTE: "FAIR" INDICATES FEW OR NO CLOUDS BELOW 12,000 FEET WITH NO SIGNIFICANT WEATHER AND/OR OBSTRUCTIONS TO VISIBILITY. NOT ALL STATIONS ARE QUALITY CONTROLLED. USE DATA WITH CAUTION... ESPECIALLY DEWPOINT OBSERVATIONS. SCZ027-030-031-034>040-042>050-251500- ...SOUTHEAST SOUTH CAROLINA... CITY SKY/WX TMP DP RH WIND PRES REMARKS N CHARLESTON MOSUNNY 79 73 82 NE12 30.10R WATERFRONT PRK N/A 76 74 93 N7 30.07R MOUNT PLEASANT PTSUNNY 75 75 100 CALM 30.10R JOHNS ISLAND PTSUNNY 81 73 78 N8 30.10R PINOPOLIS N/A 73 73 100 N8 30.03 MONCKS CORNER CLOUDY 73 73 100 N6 30.11R SUMMERVILLE CLOUDY 75 75 100 N6 30.12R BEAUFORT MCAS PTSUNNY 79 75 87 N8 30.10R BEAUFORT ARPT CLOUDY 77 73 88 NE10 30.09S HILTON HEAD IS CLOUDY 77 73 88 N6 30.10F WALTERBORO PTSUNNY 77 77 100 N5 30.12R ALLENDALE FAIR 81 75 83 VRB3 30.10R ...SOUTHERN MIDLANDS AND PEE DEE... CITY SKY/WX TMP DP RH WIND PRES REMARKS GEORGETOWN CLOUDY 73 73 100 NE9 30.12R KINGSTREE FAIR 79 70 73 CALM 30.11S ORANGEBURG SUNNY 80 73 79 N6 30.12R BARNWELL NOT AVBL AIKEN FAIR 79 70 73 CALM 30.16R MANNING FAIR 77 70 78 N3 30.11S COLUMBIA MOSUNNY 81 70 69 CALM 30.11R SUMTER SUNNY 78 71 77 VRB3 30.10R FLORENCE SUNNY 79 70 74 NE6 30.12R MYRTLE BEACH PTSUNNY 73 66 78 N9 30.13R N MYRTLE BEACH MOSUNNY 77 73 87 NE7 30.11R $$ GAZ063-065-086>088-099>101-113>116-118-119-134>141-150-251500- ...SOUTHEAST GEORGIA... CITY SKY/WX TMP DP RH WIND PRES REMARKS SAVANNAH ARPT PTSUNNY 80 73 79 N7 30.08F HUNTER AAF MOSUNNY 80 80 99 NE5 30.05F FORT STEWART MOSUNNY 79 73 82 N2 30.06S STATESBORO SUNNY 82 75 78 N5 30.09S SYLVANIA NOT AVBL CLAXTON FAIR 81 76 82 W5 30.09S ...CSRA...CENTRAL AND FAR SOUTHEAST GEORGIA... CITY SKY/WX TMP DP RH WIND PRES REMARKS THOMSON SUNNY 83 73 72 CALM 30.16R AUGUSTA-BUSH SUNNY 78 70 76 NE5 30.10S AUGUSTA-DANIEL SUNNY 81 67 62 NE3 30.12R SWAINSBORO FAIR 81 72 74 CALM 30.11S VIDALIA CLOUDY 82 77 83 CALM 30.10S HX 91 EASTMAN FAIR 85 65 50 CALM 30.12R HAZLEHURST FAIR 84 74 73 CALM 30.08S HX 91 ALMA SUNNY 81 72 74 CALM 30.08R WAYCROSS SUNNY 85 76 74 CALM 30.08R HX 94 JESUP FAIR 82 77 83 N3 30.08S HX 91 BAXLEY PTSUNNY 82 77 83 NE3 30.08S HX 91 BRUNSWICK SUNNY 82 77 83 N7 30.08S HX 91 SAINT SIMONS SUNNY 81 73 76 N8 30.06F $$ SCZ027-028-034-036>038-045-046-048>050-GAZ119-141-251500- ...LAKE AND SUPPLEMENTAL COASTAL OBSERVATIONS... STATION/POSITION TIME TEMP WIND PRES WAVE SWELL AIR SEA DIR/SP/G HT/PER HT/PER/DIR (UTC) (F) (DEG/KT/KT) (MB) (FT/S) (FT/S/D) WINYAH BAY 1330 76 360/ 7 1018.0S LAKE MURRAY 1420 80 CALM 1019.3 ACE BASIN NERRS 1345 74 350/ 2 1019.0S FORT PULASKI 1400 78 81 350/ 7/ 9 1018.9 SAPELO ISLAND 1400 76 360/ 6 1018.0 $$ ANZ835-935-AMZ111-154-330-350-352-354-370-450-454-472-251500- ...C-MAN AND BUOY OBSERVATIONS... STATION/POSITION TIME TEMP WIND PRES WAVE SWELL AIR SEA DIR/SP/G HT/PER HT/PER/DIR (UTC) (F) (DEG/KT/KT) (MB) (FT/S) (FT/S/D) BUOY 41004 1350 82 82 50/ 14/ 17 1017.7R 4/11 3/ 80/11 BUOY 41008 1350 80 82 10/ 14/ 16 1017.6F 3/11 3/110/11 FOLLY BEACH CMAN 1400 78 360/ 9/ 12 1019.2R CAPERS NEARSHORE 1408 78 81 20/ 12/ 14 1019.0R FRIPP NEARSHORE 1408 78 81 10/ 14/ 16 1018.9R STATION/POSITION TIME TEMP WIND PRES WAVE SWELL AIR SEA DIR/SP/G HT/PER HT/PER/DIR (UTC) (F) (DEG/KT/KT) (MB) (FT/S) (FT/S/D) 5E ST. MARYS GA 1401 82 N/A 3/11 2/110/11 FRYING PAN BUOY 1410 81 82 50/ 16/ 17 1018.6 BUOY 41025 1350 71 85 30/ 19/ 23 1019.5R 6/10 3/100/10 CAPE LOOKOUT NC 1400 76 40/ 16/ 18 1019.6R BUOY 41002 1350 82 83 50/ 8/ 10 1017.3R 4/10 3/ 90/10 BUOY 41010 NOT AVBL ST AUGUSTINE FL 1400 81 84 330/ 4/ 5 1018.8R $$

USA.gov is the U.S. government's official web portal to all federal, state and local government web resources and services.